User: anonymous   Login
Location: Newark
(44.5425°N, 10.7801°E)
Time: 18:50:46
(UTC+00:00)
Language:

N. Korean satellite - Orbit

View from above orbital plane
View from above orbital plane
View from above satellite
View from above satellite

Ground track
Ground track

The orbit data is extracted from the following two-line orbital elements,

1 39026U 12072A   20048.13323760  .00000698  00000-0  27504-4 0  9996
2 39026  97.2195  48.5718 0036364 317.7148  42.1290 15.28338554398777
Epoch (UTC): 17 February 2020 03:11:51
Eccentricity: 0.0036364
inclination: 97.2195°
perigee height: 456 km
apogee height: 506 km
right ascension of ascending node: 48.5718°
argument of perigee: 317.7148°
revolutions per day: 15.28338554
mean anomaly at epoch: 42.1290°
orbit number at epoch: 39877

The dashed part of the orbit path shows where the satellite is in the earth's shadow,  

DLR